Flag Weather past 2 weeks in Augsburg, Bavaria, Germany

Now
34 °F

Fog.


Feels Like: 27 °F
Forecast: 35 / 43 °F
Wind: 8 mph from East

Location: Augsburg Airport

Current Time: Nov 28, 2014 at 8:42:06 PM

Latest Report: Nov 28, 2014 at 8:20 PM


Visibility: 2 mi

Pressure: 29.89 "Hg

Humidity: 100%

Dew point: 34 °F

Location of AugsburgLocation

Historic Weather in Augsburg — Graph

°F

Augsburg temperature yesterday

Maximum temperature yesterday: 41 °F (at 2:50 PM)
Minimum temperature yesterday: 37 °F (at 5:50 AM)
Average temperature yesterday: 39 °F

Past Weeks' High & Low Weather Summary

 TemperatureHumidityPressure
High52 °F (Nov 16, 11:50 AM)100% (Nov 13, 7:20 PM)30.30 "Hg (Nov 13, 7:20 PM)
Low32 °F (Nov 28, 8:50 AM)62% (Nov 16, 12:50 PM)29.53 "Hg (Nov 15, 8:20 PM)
Average41 °F98%29.97 "Hg
* Reported Nov 13 7:20 PM — Nov 28 7:20 PM, Augsburg, Weather by CustomWeather, © 2014

Note: Actual official high and low records may vary slightly from our data, if they occured in-between our weather recording intervals... More about our weather records

Advertising

Augsburg weather history for previous 24 hours

 ConditionsComfort  
Time TempWeatherWind HumidityBarometerVisibility
7:20 PM
Nov 28
34 °FFog.8 mph100%29.89 "Hg2 mi
6:50 PM34 °FFog.9 mph100%29.89 "Hg2 mi
6:20 PM34 °FFog.8 mph100%29.86 "Hg1 mi
5:50 PM34 °FFog.8 mph100%29.86 "Hg1 mi
5:20 PM34 °FLow clouds.8 mph100%29.86 "Hg1 mi
4:50 PM34 °FLow clouds.10 mph100%29.86 "Hg1 mi
4:20 PM34 °FLow clouds.12 mph100%29.86 "Hg1 mi
3:50 PM34 °FFog.13 mph100%29.83 "Hg1 mi
3:20 PM34 °FLow clouds.12 mph100%29.86 "Hg1 mi
2:50 PM34 °FFog.8 mph100%29.86 "Hg1 mi
2:20 PM34 °FFog.10 mph100%29.83 "Hg1 mi
1:50 PM34 °FFog.9 mph100%29.83 "Hg1 mi
1:20 PM34 °FFog.12 mph100%29.86 "Hg1 mi
12:50 PM34 °FFog.12 mph100%29.86 "Hg1 mi
12:20 PM34 °FFog.10 mph100%29.86 "Hg1 mi
11:50 AM34 °FFog.12 mph100%29.86 "Hg1 mi
11:20 AM34 °FFog.10 mph100%29.86 "Hg1 mi
10:50 AM34 °FFog.9 mph100%29.89 "Hg1 mi
10:20 AM34 °FFog.8 mph100%29.89 "Hg1 mi
9:50 AM32 °FFog.12 mph100%29.86 "Hg1 mi
9:20 AM34 °FFog.9 mph100%29.86 "Hg1 mi
8:50 AM32 °FFog.8 mph100%29.86 "Hg1 mi
8:20 AM34 °FFog.8 mph100%29.86 "Hg1 mi
7:50 AM34 °FFog.12 mph100%29.86 "Hg1 mi
7:20 AM34 °FFog.9 mph100%29.86 "Hg1 mi
6:50 AM34 °FDrizzle. Fog.9 mph100%29.83 "Hg1 mi
8:50 PM
Nov 27
39 °FOvercast.6 mph100%29.83 "Hg4 mi
8:20 PM39 °FOvercast.5 mph100%29.83 "Hg4 mi
Weather by CustomWeather, © 2014

See weather overviewHow to use our weather pages